Location: Beutels
(47.8767°N, 9.8584°E)
Time: 04:52:17
(UTC+00:00)

ARIANE 6 FM1 Upper Stage - Visible Passes

Search period start: 15 January 2026 00:00
Search period end: 25 January 2026 00:00
Orbit: 522 x 610 km, 62.0° (Epoch: 14 January)

Date Brightness Start Highest point End Pass type
(mag) Time Alt. Az. Time Alt. Az. Time Alt. Az.
15 Jan 5.6 03:38:07 13° ESE 03:38:07 13° ESE 03:38:37 10° ESE visible
15 Jan 3.9 05:14:12 24° SW 05:14:12 24° SW 05:16:54 10° S visible
16 Jan 5.7 03:38:59 10° SE 03:38:59 10° SE 03:39:00 10° SE visible
16 Jan 4.6 05:15:03 15° SW 05:15:03 15° SW 05:16:21 10° SSW visible
20 Jan 4.9 17:36:38 10° SE 17:36:48 10° SE 17:36:48 10° SE visible
20 Jan 5.4 19:12:32 10° SW 19:12:53 12° SW 19:12:53 12° SW visible
21 Jan 4.3 17:35:29 10° SSE 17:37:48 17° SE 17:37:48 17° SE visible
21 Jan 5.1 19:12:47 10° SW 19:13:51 17° SW 19:13:51 17° SW visible
22 Jan 3.7 17:34:55 10° S 17:38:15 25° ESE 17:38:42 24° ESE visible
22 Jan 4.9 19:13:08 10° WSW 19:14:45 22° WSW 19:14:45 22° WSW visible
23 Jan 3.3 17:34:36 10° S 17:38:20 35° ESE 17:39:30 29° E visible
23 Jan 4.8 19:13:35 10° WSW 19:15:33 24° W 19:15:33 24° W visible
24 Jan 2.8 17:34:29 10° SSW 17:38:26 50° SE 17:40:13 28° ENE visible
24 Jan 4.9 19:14:08 10° W 19:16:16 23° WNW 19:16:16 23° WNW visible
